NOAA 14 DEB

Satellite information

Favourite Embed

Satellite Type and Status

DEBRISIN ORBIT

Key statistics

Satellite NOAA 14 DEB at a glance.

Uptime

11207

Days in orbit

Revolutions

≈ 14.3

Per day

Orbit

SSO

Sun Synchronous Orbit

Inclination

98.6

Latest

Satellite identification and parameters

Extended collection of information and parameters for NOAA 14 DEB.

Object identification

Identified? True

Debris? True

Object name: NOAA 14 DEB

International designator: 1994-089D

Object number (NORAD): 38732

Object ID (CCSDS): 38732

Country: UNITED STATES OF AMERICA (US)

Current information (Y/N): Y

RCS size: MEDIUM

Orbital parameters

Period: 100.518 minutes

Inclination: 98.6411 deg

SMA: 7161.244 km

Apoapsis: 791.233 km

Periapsis: 774.985 km

RAAN: 337.2521 deg

Eccentricy: 0.0011345

Argument of periapsis: 146.2985 deg

Mean anomaly: 213.8922 deg

Mean motion: 14.3258389 rev/day

Mean motion (dot): 0.0000517 rev/day2

B* drag term: 0.0019184589 1/REarth

Two-line elements (TLE)

Creation date: Sept. 4, 2025, 10:13 a.m.

Reference frame: TEME

Reference center: EARTH

Epoch: Sept. 4, 2025, 4:49 a.m. UTC

TLE line 0: 0 NOAA 14 DEB

TLE line 1: 1 38732U 94089D 25247.20108042 .00005170 00000-0 19185-2 0 9999

TLE line 2: 2 38732 98.6411 337.2521 0011345 146.2985 213.8922 14.32583890680190

Live tracking on map

Real-time ground track for satellite NOAA 14 DEB.

In-orbit conjunctions

A list of the most updated potential collisions computed for object NOAA 14 DEB.

Target Orbit TCA Probability of collision Miss distance Type
CZ-6A DEB SSO 2024-08-12 01:17:52 0.0002070855 63.0 (m) DEBRIS

Associated space launch

Fourth generation NOAA meteorological satellite

NOAA 14 DEB was lifted into orbit during the mission ‘Atlas E | NOAA 14’, on board a Atlas E space rocket.

The launch took place on Dec. 30, 1994, 10:02 a.m. from Space Launch Complex 3W.

For more information about the launch, click the button.

Launch to space Atlas E | NOAA 14
Atlas E | NOAA 14

Agency: N/A

Status: Launch Successful

Launch date: Dec. 30, 1994, 10:02 a.m. UTC

Rocket: Atlas E

Launch pad: Space Launch Complex 3W

Location: Vandenberg SFB, CA, USA

...

Latest news about this satellite

There are no fresh news available about this satellite. Check back as we update our databases every day.


Newsletter sign-up

Weekly statistics, charts and insights to help you stay on top of the space industry.